[[{"header":{"parameterUnit":"m.s-1","parameterCategory":1,"la1":30.2991,"la2":30.254,"lo1":-89.0895,"lo2":-89.0444,"dy":0.0017,"dx":0.0017,"nx":28,"ny":28,"refTime":"2024-08-27T03:00:00:Z","depth":0,"parameterNumber":2,"parameterNumberName":"U-component_of_WINDS"},"data":[0,0,0,0,0,0,0,0,0,0,0,0,0,0,0,0,0,0,0,0,0,0,0,0,0,0,0,0,0,0,0,0,0,0,0,0,0,0,0,0,0,0,0,0,0,0,0,0,0,0,0,0,0,0,0,0,0,0,-3.3657,-3.3658,0,-3.3766,-3.3767,-3.3768,-3.3739,-3.3736,-3.3734,-3.3732,-3.3842,-3.3847,-3.3852,0,0,0,0,0,0,0,0,0,0,0,0,0,-3.3422,-3.3427,-3.3657,-3.3658,-3.366,-3.3766,-3.3767,-3.3769,-3.3739,-3.3736,-3.3734,-3.3731,-3.3841,-3.3846,-3.3852,0,0,0,0,0,0,0,0,0,0,0,0,0,-3.3527,-3.3428,-3.3657,-3.3658,-3.3659,-3.3765,-3.3767,-3.3769,-3.374,-3.3736,-3.3733,-3.373,-3.3839,-3.3846,-3.3853,-3.3965,0,0,-3.3876,-3.3879,0,0,0,0,0,0,0,0,-3.3521,-3.3536,-3.3656,-3.3658,-3.3659,-3.3735,-3.3725,-3.3835,-3.374,-3.3709,-3.3732,-3.3728,-3.3809,-3.3819,-3.3846,-3.397,-3.3975,-3.3877,-3.3881,-3.3884,-3.3886,0,0,0,0,0,0,0,-3.3514,-3.3531,-3.37,-3.3658,-3.366,-3.3652,-3.3664,-3.3745,-3.3776,-3.3711,-3.3709,-3.3723,-3.3809,-3.3839,-3.3849,-3.3976,-3.3876,-3.3883,-3.3888,-3.3891,-3.4198,-3.4201,0,0,0,0,0,0,-3.3505,-3.3525,-3.3696,-3.3703,-3.3581,-3.3659,-3.3672,-3.3714,-3.3775,-3.3781,-3.3726,-3.3721,-3.3828,-3.384,-3.3853,-3.3987,-3.3884,-3.3891,-3.3896,-3.4194,-3.4199,-3.4203,0,0,0,0,0,0,-3.3501,-3.3521,-3.3692,-3.3614,-3.3635,-3.3667,-3.3715,-3.3718,-3.3748,-3.3786,-3.3791,-3.375,-3.3826,-3.3842,-3.3937,-3.399,-3.3895,-3.3901,-3.419,-3.4196,-3.4201,-3.4257,0,0,0,0,0,0,-3.3494,-3.3519,-3.3562,-3.3615,-3.3639,-3.3775,-3.3718,-3.3723,-3.3761,-3.3756,-3.3811,-3.3816,-3.3825,-3.3926,-3.3945,-3.3999,-3.3907,-3.4185,-3.4192,-3.4199,-3.425,-3.4264,-3.4275,0,0,0,0,0,-3.3486,-3.3573,-3.3565,-3.3585,-3.3693,-3.3778,-3.3792,-3.38,-3.3765,-3.3809,-3.3833,-3.3815,-3.3982,-3.3937,-3.3957,-3.4014,-3.4182,-3.419,-3.4198,-3.4245,-3.4261,-3.4275,0,0,0,0,0,0,-3.3525,-3.358,-3.3571,-3.3678,-3.3724,-3.3773,-3.3827,-3.3817,-3.3873,-3.3866,-3.3874,-3.3886,-3.3984,-3.4009,-3.3957,-3.4126,-3.4077,-3.409,-3.4105,-3.4121,-3.4133,-3.4124,-3.3913,0,0,0,0,0,-3.3547,-3.3611,-3.3656,-3.3746,-3.377,-3.3795,-3.3832,-3.3835,-3.3882,-3.3901,-3.3933,-3.3979,-3.4042,-3.4083,-3.4144,-3.4255,-3.4266,-3.4305,-3.4317,-3.4327,-3.4337,-3.4398,-3.4415,-3.423,-3.423,-3.423,0,0,-3.3591,-3.3629,-3.3669,-3.3755,-3.3791,-3.3858,-3.3811,-3.3884,-3.3933,-3.3912,-3.4004,-3.4029,-3.4081,-3.4185,-3.4233,-3.4209,-3.4391,-3.4337,-3.4345,-3.435,-3.4408,-3.4425,-3.4441,-3.4236,-3.4235,-3.4234,0,0,-3.3705,-3.3741,-3.382,-3.3858,-3.3913,-3.3929,-3.3948,-3.4,-3.4016,-3.4108,-3.4094,-3.4153,-3.4262,-3.43,-3.4333,-3.4465,-3.4449,-3.4484,-3.4547,-3.4606,-3.4621,-3.4634,-3.468,-3.4696,-3.4495,-3.4495,-3.4495,0,-3.3753,-3.3853,-3.3862,-3.3936,-3.3974,-3.396,-3.404,-3.4076,-3.4147,-3.4174,-3.4147,-3.4284,-3.4318,-3.443,-3.4462,-3.4491,-3.4512,-3.4477,-3.4618,-3.4631,-3.4644,-3.4687,-3.4705,-3.4499,-3.4498,-3.4498,-3.4498,0,-3.3908,-3.3978,-3.4036,-3.4106,-3.4151,-3.4228,-3.4248,-3.4293,-3.4292,-3.4312,-3.4407,-3.4448,-3.4516,-3.4544,-3.4543,-3.4657,-3.464,-3.4616,-3.4567,-3.4665,-3.4706,-3.4723,-3.4504,-3.4503,-3.4502,-3.4501,0,0,-3.4048,-3.4124,-3.4145,-3.4176,-3.4237,-3.4291,-3.4368,-3.4435,-3.4473,-3.4524,-3.4588,-3.4681,-3.466,-3.4698,-3.4702,-3.4754,-3.4855,-3.4724,-3.4725,-3.4745,-3.4981,-3.4997,-3.5016,-3.4847,-3.485,-3.4852,-3.4976,0,-3.4166,-3.43,-3.4312,-3.4433,-3.4497,-3.4486,-3.4552,-3.4597,-3.4618,-3.4676,-3.4699,-3.4764,-3.4732,-3.4755,-3.4806,-3.4832,-3.4902,-3.4823,-3.4905,-3.4908,-3.489,-3.5038,-3.5055,-3.517,-3.4992,-3.4995,-3.4997,0,-3.4321,-3.4377,-3.4505,-3.4557,-3.4585,-3.4644,-3.4707,-3.4763,-3.4814,-3.4825,-3.4869,-3.4867,-3.4946,-3.4896,-3.5004,-3.495,-3.4985,-3.5003,-3.5008,-3.5014,-3.4956,-3.5046,-3.5207,-3.5223,-3.5023,-3.5021,-3.5019,0,-3.4408,-3.4516,-3.4606,-3.4634,-3.4698,-3.474,-3.4768,-3.4816,-3.4856,-3.4912,-3.4938,-3.5002,-3.5037,-3.5087,-3.5102,-3.5064,-3.521,-3.5161,-3.5221,-3.522,-3.5249,-3.5247,-3.5416,-3.5276,-3.5275,-3.5275,-3.5275,0,-3.4538,-3.4616,-3.4646,-3.4701,-3.4788,-3.4801,-3.4887,-3.4914,-3.4957,-3.5016,-3.5012,-3.5068,-3.5086,-3.5146,-3.5159,-3.5246,-3.5262,-3.5273,-3.5275,-3.5272,-3.5271,-3.5293,-3.5285,-3.528,-3.5279,-3.5278,-3.5277,0,-3.4648,-3.4672,-3.4769,-3.4822,-3.4838,-3.4899,-3.4945,-3.4998,-3.5019,-3.5095,-3.5114,-3.5147,-3.5217,-3.5238,-3.5323,-3.5331,-3.5433,-3.5429,-3.5416,-3.5415,-3.5473,-3.5467,-3.566,-3.5686,-3.5531,-3.5533,-3.5534,0,-3.4728,-3.4788,-3.4848,-3.4888,-3.4919,-3.4983,-3.5025,-3.5041,-3.5084,-3.5147,-3.5193,-3.5263,-3.5319,-3.5432,-3.5463,-3.5528,-3.5524,-3.5587,-3.5533,-3.5529,-3.5523,-3.5518,-3.5524,-3.5597,-3.5598,-3.56,-3.5601,0,-3.4867,-3.4876,-3.4936,-3.5001,-3.505,-3.5102,-3.5151,-3.5185,-3.5208,-3.5257,-3.5329,-3.5373,-3.546,-3.5529,-3.5595,-3.5624,-3.5616,-3.5618,-3.5635,-3.5631,-3.5621,-3.5626,-3.5441,-3.5613,-3.5611,-3.5611,-3.561,-3.5609,-3.4963,-3.5016,-3.5067,-3.5134,-3.5173,-3.522,-3.5273,-3.5301,-3.5362,-3.5434,-3.544,-3.5518,-3.5568,-3.5656,-3.569,-3.5751,-3.5732,-3.5757,-3.5763,-3.5768,-3.5772,-3.5613,-3.5763,-3.5763,-3.5762,-3.5762,-3.5762,0,-3.51,-3.5133,-3.5195,-3.5265,-3.5318,-3.5308,-3.5363,-3.5407,-3.5476,-3.5524,-3.558,-3.5663,-3.5731,-3.5768,-3.5836,-3.5877,-3.5875,-3.5894,-3.589,-3.5897,-3.5786,-3.5763,-3.5895,-3.5895,-3.5895,-3.5895,-3.5895,-3.5895,-3.5178,-3.5266,-3.5282,-3.539,-3.5422,-3.5498,-3.5531,-3.5574,-3.5612,-3.5705,-3.5762,-3.5786,-3.583,-3.5901,-3.5963,-3.5972,-3.5996,-3.6017,-3.6024,-3.5919,-3.5905,-3.5892,-3.5871,-3.6023,-3.6023,-3.613,-3.6131,-3.6132]},{"header":{"parameterUnit":"m.s-1","parameterCategory":1,"la1":30.2991,"la2":30.254,"lo1":-89.0895,"lo2":-89.0444,"dy":0.0017,"dx":0.0017,"nx":28,"ny":28,"refTime":"2024-08-27T03:00:00:Z","depth":0,"parameterNumber":3,"parameterNumberName":"V-component_of_WINDS"},"data":[0,0,0,0,0,0,0,0,0,0,0,0,0,0,0,0,0,0,0,0,0,0,0,0,0,0,0,0,0,0,0,0,0,0,0,0,0,0,0,0,0,0,0,0,0,0,0,0,0,0,0,0,0,0,0,0,0,0,0.161,0.1611,0,0.1626,0.1626,0.1626,0.1627,0.1627,0.1627,0.1627,0.1642,0.1642,0.1643,0,0,0,0,0,0,0,0,0,0,0,0,0,0.1582,0.1582,0.161,0.1611,0.1611,0.1626,0.1626,0.1626,0.1627,0.1627,0.1627,0.1626,0.1642,0.1642,0.1643,0,0,0,0,0,0,0,0,0,0,0,0,0,0.1595,0.1582,0.161,0.1613,0.1613,0.1626,0.1626,0.1627,0.1627,0.1627,0.1627,0.1626,0.1641,0.1642,0.1643,0.1654,0,0,0.1646,0.1646,0,0,0,0,0,0,0,0,0.1595,0.1596,0.1612,0.1613,0.1613,0.1624,0.1622,0.1636,0.1627,0.1622,0.1627,0.1626,0.1636,0.1638,0.1641,0.1655,0.1655,0.1646,0.1646,0.1647,0.1647,0,0,0,0,0,0,0,0.1594,0.1596,0.1617,0.1613,0.1613,0.1614,0.1615,0.1624,0.163,0.1622,0.1622,0.1624,0.1636,0.164,0.1641,0.1656,0.1646,0.1647,0.1647,0.1648,0.1681,0.1681,0,0,0,0,0,0,0.1592,0.1595,0.1616,0.1617,0.1603,0.1614,0.1616,0.1621,0.163,0.1631,0.1625,0.1624,0.1639,0.164,0.1642,0.1656,0.1647,0.1648,0.1648,0.168,0.1681,0.1681,0,0,0,0,0,0,0.1591,0.1594,0.1615,0.1606,0.1609,0.1615,0.1621,0.1622,0.1625,0.1632,0.1633,0.1627,0.1639,0.1641,0.1651,0.1656,0.1648,0.1649,0.168,0.168,0.1681,0.1683,0,0,0,0,0,0,0.1591,0.1594,0.1598,0.1606,0.1609,0.1624,0.1621,0.1622,0.1627,0.1627,0.1635,0.1636,0.1639,0.165,0.1652,0.1657,0.1649,0.1679,0.168,0.1681,0.1683,0.1684,0.1685,0,0,0,0,0,0.159,0.1597,0.1598,0.16,0.1614,0.1625,0.1626,0.163,0.1627,0.1631,0.1636,0.1636,0.1656,0.1651,0.1654,0.1659,0.1679,0.168,0.1681,0.1682,0.1684,0.1685,0,0,0,0,0,0,0.1588,0.1598,0.1599,0.161,0.1616,0.1625,0.163,0.1631,0.1638,0.1637,0.1641,0.1643,0.1654,0.1658,0.1652,0.1671,0.1667,0.1668,0.1668,0.1669,0.167,0.1668,0.165,0,0,0,0,0,0.159,0.1597,0.1605,0.1614,0.1618,0.1623,0.1628,0.163,0.1637,0.164,0.1645,0.1652,0.166,0.1665,0.1672,0.1684,0.1686,0.1689,0.169,0.1691,0.1692,0.1699,0.1701,0.1684,0.1684,0.1684,0,0,0.1592,0.1598,0.1602,0.1614,0.162,0.1628,0.1626,0.1634,0.164,0.1641,0.1651,0.1656,0.1664,0.1675,0.168,0.1679,0.1697,0.1692,0.1693,0.1693,0.17,0.1702,0.1703,0.1684,0.1684,0.1684,0,0,0.16,0.1605,0.1613,0.1619,0.1628,0.1632,0.1634,0.1643,0.1646,0.1657,0.1658,0.1665,0.1679,0.1685,0.1689,0.1702,0.1702,0.1704,0.1709,0.1716,0.1718,0.1719,0.1723,0.1725,0.1705,0.1705,0.1705,0,0.1601,0.1613,0.1617,0.1626,0.1631,0.1634,0.1642,0.1648,0.1658,0.1662,0.166,0.1678,0.1684,0.1697,0.17,0.1704,0.1707,0.1703,0.1717,0.1718,0.1719,0.1724,0.1726,0.1706,0.1706,0.1705,0.1705,0,0.1614,0.1623,0.1629,0.164,0.1646,0.1654,0.166,0.1666,0.1668,0.1673,0.1685,0.1691,0.1701,0.1705,0.1706,0.1719,0.1717,0.1716,0.1712,0.1721,0.1726,0.1727,0.1706,0.1706,0.1706,0.1706,0,0,0.162,0.1635,0.1637,0.1642,0.1653,0.166,0.1669,0.1679,0.1684,0.1692,0.17,0.1712,0.1712,0.1717,0.172,0.1727,0.1737,0.1725,0.1725,0.1727,0.1751,0.1751,0.1753,0.1737,0.1738,0.1738,0.175,0,0.1629,0.1646,0.1651,0.1665,0.1673,0.1676,0.1685,0.1692,0.1697,0.1705,0.1711,0.1719,0.1718,0.1722,0.1728,0.1734,0.1741,0.1733,0.1745,0.1745,0.1742,0.1755,0.1755,0.1766,0.1752,0.1752,0.1752,0,0.1641,0.165,0.1665,0.1676,0.168,0.1687,0.1697,0.1705,0.1714,0.1717,0.1724,0.1727,0.1737,0.1734,0.1748,0.1743,0.1748,0.1752,0.1752,0.1753,0.1749,0.1756,0.177,0.1772,0.1755,0.1755,0.1755,0,0.1644,0.166,0.1671,0.1676,0.1689,0.1694,0.1699,0.1708,0.1715,0.1724,0.1728,0.1738,0.1743,0.1751,0.1757,0.1754,0.1771,0.1768,0.1774,0.1774,0.1777,0.1776,0.1792,0.1781,0.1781,0.1781,0.1781,0,0.1654,0.1662,0.1673,0.168,0.169,0.1696,0.1707,0.1713,0.1721,0.1729,0.1733,0.1741,0.1748,0.1757,0.1761,0.1773,0.1775,0.1778,0.1779,0.1778,0.1777,0.1781,0.178,0.1782,0.1781,0.1781,0.1781,0,0.1658,0.1665,0.1678,0.169,0.1693,0.17,0.171,0.1717,0.1723,0.1734,0.1736,0.1745,0.1756,0.1763,0.1776,0.178,0.1793,0.1793,0.1789,0.179,0.1795,0.1795,0.1813,0.1816,0.1804,0.1804,0.1804,0,0.1663,0.167,0.1683,0.1689,0.1695,0.1704,0.1711,0.1718,0.1725,0.1737,0.1743,0.1754,0.1763,0.178,0.1788,0.1799,0.18,0.1806,0.1801,0.18,0.18,0.1799,0.18,0.1806,0.1806,0.1806,0.1806,0,0.1671,0.1675,0.1684,0.1695,0.1703,0.1712,0.1721,0.1726,0.1735,0.1742,0.1754,0.1761,0.1776,0.1787,0.1799,0.1805,0.1807,0.1808,0.181,0.1808,0.1805,0.1806,0.1791,0.1807,0.1807,0.1807,0.1807,0.1807,0.1676,0.1683,0.1693,0.1704,0.1712,0.1721,0.1728,0.1735,0.1745,0.1758,0.1761,0.1773,0.1784,0.18,0.1807,0.1816,0.1815,0.1818,0.1819,0.1819,0.1819,0.1804,0.1818,0.1818,0.1818,0.1818,0.1818,0,0.1685,0.1692,0.1702,0.1715,0.1723,0.1726,0.1736,0.1743,0.1754,0.1763,0.1773,0.1787,0.1798,0.1807,0.1819,0.1825,0.1827,0.1828,0.1827,0.1829,0.1819,0.1816,0.1827,0.1827,0.1827,0.1827,0.1827,0.1827,0.169,0.1702,0.1707,0.1723,0.173,0.1742,0.1748,0.1757,0.1764,0.178,0.1789,0.1796,0.1805,0.1818,0.1829,0.1832,0.1836,0.1837,0.1839,0.183,0.1829,0.1828,0.1826,0.1838,0.1838,0.1848,0.1848,0.1848]}]]